Regional Weather Roundup
Issued by NWS

Home | Current Version | Previous Version | Text Only | Print | Product List | Glossary On
Versions: 1 2 3 4 5 6 7 8 9 10 11 12 13 14 15 16 17 18 19 20 21 22 23 24 25 26 27 28 29 30 31 32 33 34 35 36 37 38 39 40 41 42 43 44 45 46 47 48 49 50
000
ASUS43 KLSX 260010
RWRMO

WEATHER SUMMARY FOR MISSOURI
NATIONAL WEATHER SERVICE SPRINGFIELD MO
700 PM CDT THU AUG 25 2016

NOTE: "FAIR" INDICATES FEW OR NO CLOUDS BELOW 12,000 FEET WITH NO
       SIGNIFICANT WEATHER AND/OR OBSTRUCTIONS TO VISIBILITY.
       CURRENT SKY AND/OR WEATHER CONDITIONS ARE NOT AVAILABLE FOR
       CHILLICOTHE AND FARMINGTON.

MOZ001>031-035>038-043-044-053-054-260100-
...NORTHERN AND WESTERN MISSOURI...

CITY           SKY/WX    TMP DP  RH WIND       PRES   REMARKS
KANSAS CTY INT CLOUDY    77  67  71 NE14      30.04S
6HR MIN TEMP:  77; 6HR MAX TEMP:  83;

KANSAS C DTWN  CLOUDY    79  69  71 N12       30.01S
6HR MIN TEMP:  79; 6HR MAX TEMP:  87;

LEE`S SUMMIT   PTSUNNY   79  71  76 N10       30.03S
6HR MIN TEMP:  79; 6HR MAX TEMP:  86;

ST JOSEPH      MOSUNNY   77  66  68 NE10      30.06S
6HR MIN TEMP:  75; 6HR MAX TEMP:  80;

KIRKSVILLE     CLOUDY    74  64  71 NE5       30.08R
6HR MIN TEMP:  69; 6HR MAX TEMP:  78; 6HR PCP:  0.59;


$$
MOZ066>068-077>081-088>096-101>105-260100-
...SOUTHWEST MISSOURI...

CITY           SKY/WX    TMP DP  RH WIND       PRES   REMARKS
SPRINGFIELD    CLOUDY    87  69  54 S6        30.02S HX  91
6HR MIN TEMP:  87; 6HR MAX TEMP:  91;

JOPLIN         TSTM      74  66  76 SE7       30.01F
6HR MIN TEMP:  74; 6HR MAX TEMP:  91; 6HR PCP:  0.49;

BRANSON        CLOUDY    82  72  69 S7        30.05F

$$
MOZ032>034-039>042-045>050-055>058-069>072-260100-
...CENTRAL MISSOURI...

CITY           SKY/WX    TMP DP  RH WIND       PRES   REMARKS
COLUMBIA       CLOUDY    82  73  74 NE7       30.02F
6HR MIN TEMP:  81; 6HR MAX TEMP:  89;

JEFFERSON CITY CLOUDY    80  74  81 E3        30.00F
6HR MIN TEMP:  80; 6HR MAX TEMP:  90; 6HR PCP: TRACE;

ROLLA          RAIN      77  74  90 W9        30.03F FOG
6HR MIN TEMP:  77; 6HR MAX TEMP:  89; 6HR PCP:  0.01;

SEDALIA        PTCLDY    84  74  71 N3        30.03F HX  91
6HR MIN TEMP:  84; 6HR MAX TEMP:  88;

WHITEMAN AFB   PTCLDY    83  77  80 NE6       30.00F HX  92
OSAGE BEACH    CLOUDY    72  70  93 CALM      30.03F

$$
MOZ051-052-059>065-260100-
...EAST CENTRAL MISSOURI...

CITY           SKY/WX    TMP DP  RH WIND       PRES   REMARKS
ST LOUIS INTL  MOCLDY    90  70  51 W7        30.02S HX  95
6HR MIN TEMP:  89; 6HR MAX TEMP:  94;

SPIRIT OF STL  MOCLDY    84  77  79 S3        30.00F HX  94
6HR MIN TEMP:  84; 6HR MAX TEMP:  93;

ST CHARLES     CLEAR     88  73  61 CALM      30.00S HX  95
6HR MIN TEMP:  87; 6HR MAX TEMP:  92;


$$
MOZ072>076-082>087-097>100-106>115-260100-
...SOUTH CENTRAL AND SOUTHEAST MISSOURI...

CITY           SKY/WX    TMP DP  RH WIND       PRES   REMARKS
CAPE GIRARDEAU PTCLDY    85  76  74 CALM      30.03  HX  94
6HR MIN TEMP:  85; 6HR MAX TEMP:  91;

POPLAR BLUFF   CLOUDY    85  77  77 W3        30.03R HX  95
6HR MIN TEMP:  85; 6HR MAX TEMP:  93;

WEST PLAINS    CLOUDY    83  71  67 SE3       30.08S
6HR MIN TEMP:  83; 6HR MAX TEMP:  91;


$$




USA.gov is the U.S. government's official web portal to all federal, state and local government web resources and services.